Flag for Norway Weather past 2 weeks in Røyken, Norway

Now
52 °F

Partly sunny.


Feels Like: 46 °F
Forecast: 48 / 67 °F
Wind: 18 mph from Northwest

Location: Oslo / Fornebu

Current Time: Aug 20, 2014 at 9:13:13 PM

Latest Report: Aug 20, 2014 at 8:50 PM


Visibility: N/A

Pressure: 29.71 "Hg

Humidity: 77%

Dew point: 45 °F

Location of RøykenLocation

Historic Weather in Røyken — Graph

°F

Røyken temperature yesterday

Maximum temperature yesterday: 54 °F (at 12:20 AM)
Minimum temperature yesterday: 52 °F (at 6:20 AM)
Average temperature yesterday: 53 °F

Past Weeks' High & Low Weather Summary

 TemperatureHumidityPressure
High59 °F (Aug 12, 8:20 PM)100% (Aug 16, 4:50 PM)29.89 "Hg (Aug 16, 4:50 PM)
Low52 °F (Aug 16, 3:50 AM)59% (Aug 15, 9:50 AM)29.21 "Hg (Aug 12, 8:20 PM)
Average55 °F82%29.54 "Hg
* Reported Aug 5 7:20 PM — Aug 20 7:50 PM, Røyken, Weather by CustomWeather, © 2014

Note: Actual official high and low records may vary slightly from our data, if they occured in-between our weather recording intervals... More about our weather records

Advertising

Røyken weather history for previous 24 hours

 ConditionsComfort  
Time TempWeatherWind HumidityBarometerVisibility
7:50 PM
Aug 20
54 °FPartly sunny.17 mph77%29.71 "HgN/A
7:20 PM54 °FPartly sunny.16 mph77%29.71 "HgN/A
6:50 PM54 °FPassing clouds.16 mph77%29.71 "HgN/A
6:20 PM54 °FPassing clouds.16 mph77%29.71 "HgN/A
5:50 PM55 °FPassing clouds.18 mph72%29.71 "HgN/A
5:20 PM55 °FScattered clouds.18 mph67%29.71 "HgN/A
4:50 PM55 °FBroken clouds.18 mph72%29.71 "HgN/A
4:20 PM54 °FPartly sunny.17 mph72%29.71 "HgN/A
3:50 PM55 °FBroken clouds.21 mph72%29.71 "HgN/A
3:20 PM57 °FScattered clouds.17 mph67%29.71 "HgN/A
2:50 PM55 °FPassing clouds.18 mph72%29.71 "HgN/A
2:20 PM55 °FPassing clouds.20 mph72%29.71 "HgN/A
1:50 PM54 °FBroken clouds.21 mph77%29.71 "HgN/A
1:20 PM54 °FPassing clouds.22 mph67%29.71 "HgN/A
12:50 PM54 °FPassing clouds.22 mph77%29.71 "HgN/A
12:20 PM54 °FCool.23 mph72%29.68 "HgN/A
11:50 AM54 °FCool.24 mph72%29.68 "HgN/A
11:20 AM54 °FScattered clouds.24 mph77%29.68 "HgN/A
10:50 AM54 °FPassing clouds.28 mph72%29.68 "HgN/A
10:20 AM52 °FScattered clouds.28 mph82%29.68 "HgN/A
9:50 AM52 °FSprinkles. Partly sunny.28 mph82%29.68 "HgN/A
9:20 AM52 °FSprinkles. Partly sunny.26 mph82%29.68 "Hg5 mi
8:50 AM54 °FPartly sunny.24 mph82%29.68 "HgN/A
8:20 AM52 °FPartly sunny.26 mph88%29.65 "HgN/A
7:50 AM52 °FPartly sunny.28 mph82%29.65 "HgN/A
7:20 AM52 °FBroken clouds.30 mph82%29.65 "HgN/A
6:50 AM52 °FPartly sunny.30 mph82%29.65 "HgN/A
6:20 AM52 °FPassing clouds.32 mph82%29.65 "HgN/A
5:50 AM52 °FPassing clouds.30 mph82%29.65 "HgN/A
5:20 AM54 °FPassing clouds.30 mph77%29.65 "HgN/A
4:50 AM54 °FPassing clouds.29 mph82%29.65 "HgN/A
4:20 AM52 °FPassing clouds.30 mph82%29.65 "HgN/A
3:50 AM52 °FPartly cloudy.26 mph82%29.65 "HgN/A
3:20 AM52 °FPassing clouds.31 mph82%29.65 "HgN/A
2:50 AM54 °FPassing clouds.32 mph77%29.65 "HgN/A
2:20 AM54 °FPassing clouds.33 mph77%29.65 "HgN/A
1:50 AM54 °FPassing clouds.32 mph82%29.65 "HgN/A
1:20 AM54 °FPartly cloudy.32 mph77%29.65 "HgN/A
12:50 AM54 °FPassing clouds.32 mph82%29.65 "HgN/A
12:20 AM54 °FPartly cloudy.32 mph77%29.65 "HgN/A
11:50 PM
Aug 19
54 °FPassing clouds.33 mph77%29.65 "HgN/A
11:20 PM54 °FPassing clouds.33 mph77%29.65 "HgN/A
10:50 PM52 °FLight rain. Partly cloudy.N/A82%29.65 "Hg5 mi
10:20 PM54 °FCool.N/A82%29.65 "HgN/A
9:50 PM52 °FCool.N/A82%29.65 "HgN/A
9:20 PM54 °FCool.N/A77%29.62 "HgN/A
Weather by CustomWeather, © 2014

See weather overviewHow to use our weather pages